This is the latest recevied weather packets stored in our database for station/object KM4RT-13. If no packets are shown the sender has not sent any weather packets the latest 10 day(s).
| Time | Temp. | Humidity | Pressure | Rain* | Wind** | Luminosity | Snow |
|---|---|---|---|---|---|---|---|
| 1777741738 | 19.44° C | 41% | 1015.8 hPa | 0 mm | - | 778 W/m² | - |
| 1777741435 | 18.89° C | 44% | 1015.8 hPa | 0 mm | - | 786 W/m² | - |
| 1777741131 | 18.89° C | 41% | 1015.9 hPa | 0 mm | - | 785 W/m² | - |
| 1777740828 | 18.89° C | 43% | 1015.9 hPa | 0 mm | - | 766 W/m² | - |
| 1777740525 | 18.89° C | 40% | 1016 hPa | 0 mm | - | 753 W/m² | - |
| 1777740222 | 18.89° C | 44% | 1016 hPa | 0 mm | - | 749 W/m² | - |
| 1777739918 | 18.89° C | 43% | 1015.8 hPa | 0 mm | - | 752 W/m² | - |
| 1777739614 | 19.44° C | 40% | 1015.9 hPa | 0 mm | - | 741 W/m² | - |
| 1777739312 | 19.44° C | 40% | 1016 hPa | 0 mm | - | 735 W/m² | - |
| 1777739008 | 19.44° C | 44% | 1015.9 hPa | 0 mm | - | 727 W/m² | - |
| 1777738706 | 18.89° C | 45% | 1016 hPa | 0 mm | - | 711 W/m² | - |
| 1777738402 | 18.89° C | 46% | 1016.2 hPa | 0 mm | - | 709 W/m² | - |
| 1777738100 | 18.33° C | 40% | 1015.9 hPa | 0 mm | - | 701 W/m² | - |
| 1777737798 | 18.33° C | 44% | 1016.2 hPa | 0 mm | - | 701 W/m² | - |
| 1777737497 | 18.33° C | 43% | 1016.1 hPa | 0 mm | - | 693 W/m² | - |
| 1777737194 | 18.33° C | 43% | 1016.1 hPa | 0 mm | - | 676 W/m² | - |
| 1777736890 | 18.33° C | 46% | 1016.2 hPa | 0 mm | - | 667 W/m² | - |
| 1777736282 | 18.33° C | 45% | 1016.2 hPa | 0 mm | - | 649 W/m² | - |
| 1777735978 | 17.78° C | 43% | 1016.3 hPa | 0 mm | - | 642 W/m² | - |
| 1777735676 | 17.78° C | 45% | 1016.2 hPa | 0 mm | - | 630 W/m² | - |
| 1777735373 | 17.78° C | 47% | 1016.2 hPa | 0 mm | - | 619 W/m² | - |
| 1777735071 | 17.22° C | 51% | 1016.2 hPa | 0 mm | - | 608 W/m² | - |
| 1777734767 | 17.22° C | 53% | 1016.1 hPa | 0 mm | - | 596 W/m² | - |
| 1777734466 | 17.22° C | 52% | 1016.1 hPa | 0 mm | - | 584 W/m² | - |
| 1777734162 | 16.67° C | 50% | 1016.1 hPa | 0 mm | - | 570 W/m² | - |
* Rain latest hour (hover to see other rain measurements)
** Current wind speed in m/s (hover to see current wind gust speed)